| time (UTC) | temp C | wind direction | speed KPH | gust KPH | rain 1hr cm | rain 24hr cm | rain mn cm | humidity % | barometer mb |
| 20260510150228 | 15 | 48 | 0.0 | 0.0 | 0.00 | 0.00 | 0.00 | 74 | 1012.9 |
| 20260510145724 | 15 | 48 | 0.0 | 0.0 | 0.00 | 0.00 | 0.00 | 72 | 1013.3 |
| 20260510145220 | 15 | 48 | 3.2 | 3.2 | 0.00 | 0.00 | 0.00 | 72 | 1013.3 |
| 20260510144716 | 15 | 48 | 3.2 | 3.2 | 0.00 | 0.00 | 0.00 | 71 | 1012.9 |
| 20260510144214 | 15 | 48 | 0.0 | 0.0 | 0.00 | 0.00 | 0.00 | 71 | 1012.9 |
| 20260510143708 | 15 | 48 | 0.0 | 0.0 | 0.00 | 0.00 | 0.00 | 72 | 1012.9 |
| 20260510143205 | 15 | 48 | 0.0 | 0.0 | 0.00 | 0.00 | 0.00 | 77 | 1012.9 |
| 20260510142701 | 15 | 48 | 0.0 | 0.0 | 0.00 | 0.00 | 0.00 | 69 | 1012.9 |
| 20260510142158 | 15 | 48 | 3.2 | 3.2 | 0.00 | 0.00 | 0.00 | 70 | 1012.9 |
| 20260510141655 | 15 | 48 | 0.0 | 0.0 | 0.00 | 0.00 | 0.00 | 72 | 1012.9 |
| 20260510141154 | 15 | 42 | 0.0 | 0.0 | 0.00 | 0.00 | 0.00 | 73 | 1012.9 |
| 20260510140649 | 15 | 42 | 3.2 | 3.2 | 0.00 | 0.00 | 0.00 | 70 | 1013.3 |
| 20260510140149 | 15 | 48 | 3.2 | 3.2 | 0.00 | 0.00 | 0.00 | 74 | 1012.9 |
| 20260510135644 | 15 | 48 | 3.2 | 3.2 | 0.00 | 0.00 | 0.00 | 69 | 1012.9 |
| 20260510135140 | 15 | 48 | 0.0 | 0.0 | 0.00 | 0.00 | 0.00 | 70 | 1012.5 |
| 20260510134638 | 15 | 48 | 3.2 | 3.2 | 0.00 | 0.00 | 0.00 | 72 | 1012.5 |
| 20260510134135 | 15 | 48 | 0.0 | 0.0 | 0.00 | 0.00 | 0.00 | 72 | 1012.5 |
| 20260510133631 | 14 | 48 | 6.4 | 6.4 | 0.00 | 0.00 | 0.00 | 75 | 1012.5 |
| 20260510133126 | 14 | 48 | 0.0 | 0.0 | 0.00 | 0.00 | 0.00 | 75 | 1012.5 |
| 20260510132623 | 14 | 48 | 0.0 | 0.0 | 0.00 | 0.00 | 0.00 | 74 | 1012.5 |
| 20260510132121 | 14 | 48 | 1.6 | 1.6 | 0.00 | 0.00 | 0.00 | 75 | 1012.5 |
| 20260510131618 | 13 | 48 | 0.0 | 0.0 | 0.00 | 0.00 | 0.00 | 78 | 1012.9 |
| 20260510131115 | 13 | 48 | 3.2 | 3.2 | 0.00 | 0.00 | 0.00 | 76 | 1012.9 |
| 20260510130611 | 13 | 48 | 0.0 | 0.0 | 0.00 | 0.00 | 0.00 | 76 | 1012.9 |
| 20260510130109 | 13 | 48 | 0.0 | 0.0 | 0.00 | 0.00 | 0.00 | 77 | 1012.9 |
| 20260510125605 | 14 | 48 | 0.0 | 0.0 | 0.00 | 0.00 | 0.00 | 74 | 1012.5 |
| 20260510125101 | 15 | 48 | 0.0 | 0.0 | 0.00 | 0.00 | 0.00 | 70 | 1012.5 |
| 20260510124558 | 14 | 48 | 8.0 | 8.0 | 0.00 | 0.00 | 0.00 | 72 | 1012.5 |
| 20260510124055 | 14 | 48 | 1.6 | 1.6 | 0.00 | 0.00 | 0.00 | 74 | 1012.5 |
| 20260510123550 | 13 | 48 | 0.0 | 0.0 | 0.00 | 0.00 | 0.00 | 77 | 1012.5 |
| 20260510123047 | 13 | 48 | 3.2 | 3.2 | 0.00 | 0.00 | 0.00 | 76 | 1012.5 |
| 20260510122543 | 13 | 48 | 0.0 | 0.0 | 0.00 | 0.00 | 0.00 | 79 | 1012.5 |
| 20260510122039 | 12 | 48 | 0.0 | 0.0 | 0.00 | 0.00 | 0.00 | 81 | 1012.1 |
| 20260510121536 | 12 | 48 | 0.0 | 0.0 | 0.00 | 0.00 | 0.00 | 82 | 1012.5 |
| 20260510121033 | 12 | 48 | 0.0 | 0.0 | 0.00 | 0.00 | 0.00 | 83 | 1012.5 |
| 20260510120531 | 12 | 48 | 0.0 | 0.0 | 0.00 | 0.00 | 0.00 | 81 | 1012.5 |
| 20260510120026 | 12 | 48 | 0.0 | 0.0 | 0.00 | 0.00 | 0.00 | 81 | 1012.5 |
| 20260510115523 | 12 | 48 | 3.2 | 3.2 | 0.00 | 0.00 | 0.00 | 83 | 1012.5 |
| 20260510115020 | 12 | 54 | 6.4 | 6.4 | 0.00 | 0.00 | 0.00 | 82 | 1012.5 |
| 20260510114516 | 11 | 54 | 0.0 | 0.0 | 0.00 | 0.00 | 0.00 | 83 | 1012.5 |
| 20260510114012 | 11 | 54 | 0.0 | 0.0 | 0.00 | 0.00 | 0.00 | 86 | 1012.5 |
| 20260510113508 | 11 | 54 | 0.0 | 0.0 | 0.00 | 0.00 | 0.00 | 86 | 1012.5 |
| 20260510113006 | 11 | 54 | 3.2 | 3.2 | 0.00 | 0.00 | 0.00 | 87 | 1012.5 |
| 20260510112502 | 10 | 54 | 3.2 | 3.2 | 0.00 | 0.00 | 0.00 | 88 | 1012.5 |
| 20260510111958 | 10 | 54 | 3.2 | 3.2 | 0.00 | 0.00 | 0.00 | 89 | 1012.5 |
| 20260510111454 | 10 | 54 | 3.2 | 3.2 | 0.00 | 0.00 | 0.00 | 89 | 1012.5 |
| 20260510110951 | 10 | 54 | 0.0 | 0.0 | 0.00 | 0.00 | 0.00 | 90 | 1012.1 |
| 20260510110447 | 10 | 54 | 0.0 | 0.0 | 0.00 | 0.00 | 0.00 | 90 | 1012.5 |
| 20260510105943 | 10 | 54 | 3.2 | 3.2 | 0.00 | 0.00 | 0.00 | 90 | 1012.1 |
| 20260510105438 | 10 | 54 | 0.0 | 0.0 | 0.00 | 0.00 | 0.00 | 91 | 1012.1 |
| 20260510104934 | 10 | 54 | 0.0 | 0.0 | 0.00 | 0.00 | 0.00 | 91 | 1012.1 |
| 20260510104432 | 10 | 54 | 0.0 | 0.0 | 0.00 | 0.00 | 0.00 | 91 | 1011.8 |
| 20260510103928 | 10 | 54 | 0.0 | 0.0 | 0.00 | 0.00 | 0.00 | 91 | 1011.8 |
| 20260510103426 | 10 | 54 | 0.0 | 0.0 | 0.00 | 0.00 | 0.00 | 91 | 1011.8 |
| 20260510102925 | 10 | 54 | 0.0 | 0.0 | 0.00 | 0.00 | 0.00 | 92 | 1011.5 |
| 20260510102422 | 10 | 54 | 0.0 | 0.0 | 0.00 | 0.00 | 0.00 | 92 | 1011.5 |
| 20260510101919 | 10 | 54 | 0.0 | 0.0 | 0.00 | 0.00 | 0.00 | 92 | 1011.5 |
| 20260510101417 | 9 | 54 | 0.0 | 0.0 | 0.00 | 0.00 | 0.00 | 92 | 1011.5 |
| 20260510100914 | 9 | 54 | 0.0 | 0.0 | 0.00 | 0.00 | 0.00 | 92 | 1011.5 |
| 20260510100411 | 9 | 54 | 0.0 | 0.0 | 0.00 | 0.00 | 0.00 | 92 | 1011.5 |
| 20260510095907 | 9 | 54 | 0.0 | 0.0 | 0.00 | 0.00 | 0.00 | 92 | 1011.1 |
| 20260510095402 | 9 | 54 | 0.0 | 0.0 | 0.00 | 0.00 | 0.00 | 92 | 1011.5 |
| 20260510094902 | 9 | 54 | 0.0 | 0.0 | 0.00 | 0.00 | 0.00 | 93 | 1011.1 |
| 20260510094357 | 9 | 54 | 0.0 | 0.0 | 0.00 | 0.00 | 0.00 | 93 | 1011.1 |
| 20260510093854 | 9 | 54 | 0.0 | 0.0 | 0.00 | 0.00 | 0.00 | 92 | 1011.1 |
| 20260510093349 | 9 | 54 | 0.0 | 0.0 | 0.00 | 0.00 | 0.00 | 92 | 1010.8 |
| 20260510092846 | 9 | 54 | 0.0 | 0.0 | 0.00 | 0.00 | 0.00 | 92 | 1010.8 |
| 20260510092342 | 9 | 54 | 0.0 | 0.0 | 0.00 | 0.00 | 0.00 | 92 | 1010.8 |
| 20260510091838 | 9 | 54 | 0.0 | 0.0 | 0.00 | 0.00 | 0.00 | 92 | 1010.8 |
| 20260510091335 | 9 | 54 | 3.2 | 3.2 | 0.00 | 0.00 | 0.00 | 92 | 1010.8 |
| 20260510090832 | 9 | 54 | 0.0 | 0.0 | 0.00 | 0.00 | 0.00 | 92 | 1010.8 |
| 20260510090328 | 9 | 54 | 0.0 | 0.0 | 0.00 | 0.00 | 0.00 | 92 | 1010.8 |
| 20260510085824 | 9 | 54 | 0.0 | 0.0 | 0.00 | 0.00 | 0.00 | 92 | 1011.1 |
| 20260510085324 | 10 | 54 | 0.0 | 0.0 | 0.00 | 0.00 | 0.00 | 92 | 1010.8 |
| 20260510084820 | 10 | 54 | 0.0 | 0.0 | 0.00 | 0.00 | 0.00 | 92 | 1010.8 |
| 20260510084317 | 9 | 54 | 0.0 | 0.0 | 0.00 | 0.00 | 0.00 | 92 | 1010.8 |
| 20260510083814 | 9 | 54 | 0.0 | 0.0 | 0.00 | 0.00 | 0.00 | 92 | 1010.8 |
| 20260510083311 | 9 | 54 | 0.0 | 0.0 | 0.00 | 0.00 | 0.00 | 93 | 1010.8 |
| 20260510082806 | 9 | 54 | 0.0 | 0.0 | 0.00 | 0.00 | 0.00 | 92 | 1010.8 |
| 20260510082306 | 10 | 54 | 0.0 | 0.0 | 0.00 | 0.00 | 0.00 | 92 | 1010.4 |
| 20260510081802 | 10 | 54 | 0.0 | 0.0 | 0.00 | 0.00 | 0.00 | 92 | 1010.8 |
| 20260510081258 | 10 | 54 | 0.0 | 0.0 | 0.00 | 0.00 | 0.00 | 92 | 1011.1 |
| 20260510080754 | 10 | 54 | 0.0 | 0.0 | 0.00 | 0.00 | 0.00 | 91 | 1011.5 |
| 20260510080249 | 10 | 54 | 0.0 | 0.0 | 0.00 | 0.00 | 0.00 | 91 | 1011.5 |
| 20260510075747 | 10 | 54 | 0.0 | 0.0 | 0.00 | 0.00 | 0.00 | 92 | 1011.5 |
| 20260510075244 | 10 | 54 | 0.0 | 0.0 | 0.00 | 0.00 | 0.00 | 92 | 1011.8 |
| 20260510074741 | 10 | 54 | 0.0 | 0.0 | 0.00 | 0.00 | 0.00 | 91 | 1011.8 |
| 20260510074238 | 10 | 54 | 0.0 | 0.0 | 0.00 | 0.00 | 0.00 | 91 | 1011.8 |
| 20260510073733 | 10 | 54 | 0.0 | 0.0 | 0.00 | 0.00 | 0.00 | 90 | 1011.5 |
| 20260510073230 | 10 | 54 | 0.0 | 0.0 | 0.00 | 0.00 | 0.00 | 90 | 1011.8 |
| 20260510072725 | 10 | 54 | 0.0 | 0.0 | 0.00 | 0.00 | 0.00 | 91 | 1011.8 |
| 20260510072222 | 10 | 54 | 0.0 | 0.0 | 0.00 | 0.00 | 0.00 | 90 | 1011.8 |
| 20260510071719 | 10 | 54 | 0.0 | 0.0 | 0.00 | 0.00 | 0.00 | 90 | 1011.5 |
| 20260510071216 | 10 | 54 | 0.0 | 0.0 | 0.00 | 0.00 | 0.00 | 90 | 1011.8 |
| 20260510070714 | 10 | 54 | 0.0 | 0.0 | 0.00 | 0.00 | 0.00 | 90 | 1011.5 |
| 20260510070211 | 10 | 54 | 0.0 | 0.0 | 0.00 | 0.00 | 0.00 | 89 | 1011.1 |
| 20260510065706 | 10 | 54 | 3.2 | 3.2 | 0.00 | 0.00 | 0.00 | 90 | 1011.1 |
| 20260510065202 | 10 | 54 | 0.0 | 0.0 | 0.00 | 0.00 | 0.00 | 90 | 1011.1 |
| 20260510064659 | 10 | 54 | 0.0 | 0.0 | 0.00 | 0.00 | 0.00 | 90 | 1011.1 |
| 20260510064156 | 10 | 54 | 0.0 | 0.0 | 0.00 | 0.00 | 0.00 | 89 | 1011.1 |
| 20260510063653 | 10 | 54 | 0.0 | 0.0 | 0.00 | 0.00 | 0.00 | 88 | 1010.8 |
| 20260510063149 | 10 | 54 | 0.0 | 0.0 | 0.00 | 0.00 | 0.00 | 89 | 1010.8 |
| 20260510062646 | 10 | 54 | 0.0 | 0.0 | 0.00 | 0.00 | 0.00 | 89 | 1010.8 |
| 20260510062142 | 10 | 54 | 0.0 | 0.0 | 0.00 | 0.00 | 0.00 | 89 | 1010.8 |
| 20260510061637 | 10 | 54 | 0.0 | 0.0 | 0.00 | 0.00 | 0.00 | 88 | 1010.8 |
| 20260510061135 | 10 | 54 | 0.0 | 0.0 | 0.00 | 0.00 | 0.00 | 89 | 1010.8 |
| 20260510060631 | 10 | 54 | 0.0 | 0.0 | 0.00 | 0.00 | 0.00 | 89 | 1011.1 |
| 20260510060127 | 10 | 54 | 0.0 | 0.0 | 0.00 | 0.00 | 0.00 | 88 | 1011.5 |
| 20260510055624 | 10 | 54 | 3.2 | 3.2 | 0.00 | 0.00 | 0.00 | 89 | 1011.5 |
| 20260510055122 | 10 | 54 | 0.0 | 0.0 | 0.00 | 0.00 | 0.00 | 89 | 1011.1 |
| 20260510054617 | 10 | 54 | 0.0 | 0.0 | 0.00 | 0.00 | 0.00 | 89 | 1011.1 |
| 20260510054113 | 10 | 54 | 0.0 | 0.0 | 0.00 | 0.00 | 0.00 | 89 | 1011.1 |
| 20260510053612 | 10 | 54 | 0.0 | 0.0 | 0.00 | 0.00 | 0.00 | 88 | 1011.1 |
| 20260510053109 | 10 | 54 | 0.0 | 0.0 | 0.00 | 0.00 | 0.00 | 88 | 1011.1 |
| 20260510052605 | 10 | 54 | 0.0 | 0.0 | 0.00 | 0.00 | 0.00 | 89 | 1011.1 |
| 20260510052102 | 10 | 54 | 0.0 | 0.0 | 0.00 | 0.00 | 0.00 | 89 | 1011.1 |
| 20260510051557 | 10 | 54 | 3.2 | 3.2 | 0.00 | 0.00 | 0.00 | 89 | 1011.5 |
| 20260510051054 | 10 | 54 | 0.0 | 0.0 | 0.00 | 0.00 | 0.00 | 89 | 1011.5 |
| 20260510050551 | 10 | 54 | 0.0 | 0.0 | 0.00 | 0.00 | 0.00 | 89 | 1011.5 |
| 20260510050049 | 10 | 54 | 0.0 | 0.0 | 0.00 | 0.00 | 0.00 | 89 | 1011.1 |
| 20260510045546 | 10 | 54 | 0.0 | 0.0 | 0.00 | 0.00 | 0.00 | 90 | 1011.5 |
| 20260510045042 | 9 | 54 | 4.8 | 4.8 | 0.00 | 0.00 | 0.00 | 90 | 1011.5 |
| 20260510044538 | 9 | 54 | 0.0 | 0.0 | 0.00 | 0.00 | 0.00 | 91 | 1011.5 |
| 20260510044036 | 9 | 54 | 0.0 | 0.0 | 0.00 | 0.00 | 0.00 | 91 | 1011.1 |
| 20260510043531 | 9 | 54 | 0.0 | 0.0 | 0.00 | 0.00 | 0.00 | 91 | 1011.1 |
| 20260510043027 | 9 | 54 | 0.0 | 0.0 | 0.00 | 0.00 | 0.00 | 91 | 1011.5 |
| 20260510042521 | 9 | 54 | 0.0 | 0.0 | 0.00 | 0.00 | 0.00 | 91 | 1011.1 |
| 20260510042021 | 9 | 54 | 0.0 | 0.0 | 0.00 | 0.00 | 0.00 | 91 | 1011.1 |
| 20260510041520 | 9 | 54 | 0.0 | 0.0 | 0.00 | 0.00 | 0.00 | 91 | 1011.5 |
| 20260510041017 | 9 | 54 | 0.0 | 0.0 | 0.00 | 0.00 | 0.00 | 91 | 1011.5 |
| 20260510040514 | 9 | 54 | 0.0 | 0.0 | 0.00 | 0.00 | 0.00 | 91 | 1011.5 |
| 20260510040009 | 9 | 54 | 0.0 | 0.0 | 0.00 | 0.00 | 0.00 | 91 | 1011.1 |
| 20260510035506 | 9 | 54 | 0.0 | 0.0 | 0.00 | 1.75 | 1.75 | 91 | 1010.8 |
| 20260510035005 | 9 | 54 | 0.0 | 0.0 | 0.00 | 1.75 | 1.75 | 91 | 1011.1 |
| 20260510034504 | 9 | 54 | 0.0 | 0.0 | 0.00 | 1.75 | 1.75 | 91 | 1011.1 |
| 20260510034000 | 9 | 54 | 0.0 | 0.0 | 0.00 | 1.75 | 1.75 | 92 | 1011.1 |
| 20260510033455 | 9 | 54 | 0.0 | 0.0 | 0.00 | 1.75 | 1.75 | 92 | 1011.1 |
| 20260510032953 | 9 | 54 | 0.0 | 0.0 | 0.00 | 1.75 | 1.75 | 92 | 1011.5 |
| 20260510032451 | 10 | 54 | 0.0 | 0.0 | 0.00 | 1.75 | 1.75 | 91 | 1011.8 |
| 20260510031951 | 9 | 54 | 0.0 | 0.0 | 0.00 | 1.75 | 1.75 | 91 | 1011.8 |
| 20260510031446 | 9 | 54 | 0.0 | 0.0 | 0.00 | 1.75 | 1.75 | 91 | 1011.8 |
| 20260510030942 | 9 | 54 | 0.0 | 0.0 | 0.00 | 1.75 | 1.75 | 92 | 1011.5 |
| 20260510030437 | 9 | 54 | 0.0 | 0.0 | 0.00 | 1.75 | 1.75 | 92 | 1011.8 |
| 20260510025936 | 9 | 54 | 0.0 | 0.0 | 0.00 | 1.75 | 1.75 | 92 | 1011.5 |
| 20260510025433 | 9 | 54 | 0.0 | 0.0 | 0.00 | 1.75 | 1.75 | 92 | 1011.5 |
| 20260510024930 | 9 | 54 | 0.0 | 0.0 | 0.00 | 1.75 | 1.75 | 91 | 1011.8 |
| 20260510024426 | 9 | 54 | 0.0 | 0.0 | 0.00 | 1.75 | 1.75 | 91 | 1011.5 |
| 20260510023922 | 9 | 54 | 0.0 | 0.0 | 0.00 | 1.75 | 1.75 | 91 | 1011.8 |
| 20260510023419 | 9 | 54 | 0.0 | 0.0 | 0.00 | 1.75 | 1.75 | 91 | 1011.5 |
| 20260510022916 | 9 | 54 | 0.0 | 0.0 | 0.00 | 1.75 | 1.75 | 91 | 1011.5 |
| 20260510022415 | 9 | 54 | 0.0 | 0.0 | 0.00 | 1.75 | 1.75 | 91 | 1011.5 |
| 20260510021914 | 9 | 54 | 0.0 | 0.0 | 0.00 | 1.75 | 1.75 | 90 | 1011.5 |
| 20260510021413 | 9 | 54 | 4.8 | 4.8 | 0.00 | 1.75 | 1.75 | 91 | 1011.1 |
| 20260510020909 | 9 | 54 | 3.2 | 3.2 | 0.00 | 1.75 | 1.75 | 92 | 1011.1 |
| 20260510020404 | 9 | 54 | 0.0 | 0.0 | 0.00 | 1.75 | 1.75 | 92 | 1011.5 |
| 20260510015900 | 9 | 54 | 0.0 | 0.0 | 0.00 | 1.75 | 1.75 | 92 | 1011.5 |
| 20260510015355 | 9 | 54 | 0.0 | 0.0 | 0.00 | 1.75 | 1.75 | 92 | 1011.5 |
| 20260510014851 | 9 | 54 | 0.0 | 0.0 | 0.00 | 1.75 | 1.75 | 91 | 1011.8 |
| 20260510014349 | 10 | 54 | 0.0 | 0.0 | 0.00 | 1.75 | 1.75 | 91 | 1011.8 |
| 20260510013845 | 10 | 54 | 0.0 | 0.0 | 0.00 | 1.75 | 1.75 | 90 | 1012.1 |
| 20260510013340 | 9 | 54 | 0.0 | 0.0 | 0.00 | 1.75 | 1.75 | 90 | 1011.8 |
| 20260510012835 | 9 | 54 | 0.0 | 0.0 | 0.00 | 1.75 | 1.75 | 91 | 1011.8 |
| 20260510012335 | 9 | 54 | 0.0 | 0.0 | 0.00 | 1.75 | 1.75 | 91 | 1011.8 |
| 20260510011830 | 9 | 54 | 0.0 | 0.0 | 0.00 | 1.75 | 1.75 | 91 | 1011.5 |
| 20260510011326 | 9 | 54 | 0.0 | 0.0 | 0.00 | 1.75 | 1.75 | 92 | 1011.5 |
| 20260510010823 | 9 | 54 | 0.0 | 0.0 | 0.00 | 1.75 | 1.75 | 91 | 1011.8 |
| 20260510010320 | 9 | 54 | 0.0 | 0.0 | 0.00 | 1.75 | 1.75 | 91 | 1011.8 |
| 20260510005817 | 9 | 54 | 0.0 | 0.0 | 0.00 | 1.75 | 1.75 | 91 | 1011.8 |
| 20260510005313 | 10 | 54 | 0.0 | 0.0 | 0.00 | 1.75 | 1.75 | 90 | 1011.5 |
| 20260510004811 | 10 | 54 | 0.0 | 0.0 | 0.00 | 1.75 | 1.75 | 90 | 1011.1 |
| 20260510004308 | 10 | 54 | 0.0 | 0.0 | 0.00 | 1.75 | 1.75 | 90 | 1011.1 |
| 20260510003805 | 10 | 54 | 0.0 | 0.0 | 0.00 | 1.75 | 1.75 | 90 | 1011.1 |
| 20260510003302 | 10 | 54 | 0.0 | 0.0 | 0.00 | 1.75 | 1.75 | 88 | 1010.8 |
| 20260510002801 | 10 | 54 | 0.0 | 0.0 | 0.00 | 1.75 | 1.75 | 88 | 1010.8 |
| 20260510002259 | 10 | 54 | 0.0 | 0.0 | 0.00 | 1.75 | 1.75 | 87 | 1010.8 |
| 20260510001755 | 10 | 54 | 0.0 | 0.0 | 0.00 | 1.75 | 1.75 | 86 | 1010.8 |
| 20260510001253 | 10 | 54 | 0.0 | 0.0 | 0.00 | 1.75 | 1.75 | 87 | 1010.8 |
| 20260510000748 | 10 | 54 | 0.0 | 0.0 | 0.00 | 1.75 | 1.75 | 87 | 1010.4 |
| 20260510000248 | 10 | 54 | 0.0 | 0.0 | 0.00 | 1.75 | 1.75 | 88 | 1010.8 |
| 20260509235743 | 10 | 54 | 0.0 | 0.0 | 0.00 | 1.75 | 1.75 | 86 | 1010.8 |
| 20260509235240 | 11 | 54 | 0.0 | 0.0 | 0.00 | 1.75 | 1.75 | 86 | 1010.4 |
| 20260509234735 | 11 | 54 | 0.0 | 0.0 | 0.00 | 1.75 | 1.75 | 85 | 1010.4 |
| 20260509234233 | 11 | 54 | 4.8 | 6.4 | 0.00 | 1.75 | 1.75 | 83 | 1010.4 |
| 20260509233731 | 11 | 54 | 0.0 | 0.0 | 0.00 | 1.75 | 1.75 | 84 | 1010.1 |
| 20260509233228 | 11 | 54 | 0.0 | 0.0 | 0.00 | 1.75 | 1.75 | 84 | 1010.4 |
| 20260509232724 | 11 | 54 | 0.0 | 0.0 | 0.00 | 1.75 | 1.75 | 85 | 1010.1 |
| 20260509232221 | 11 | 54 | 0.0 | 0.0 | 0.00 | 1.75 | 1.75 | 84 | 1010.1 |
| 20260509231717 | 11 | 54 | 6.4 | 8.0 | 0.00 | 1.75 | 1.75 | 82 | 1010.1 |
| 20260509231215 | 11 | 54 | 0.0 | 0.0 | 0.00 | 1.75 | 1.75 | 84 | 1010.1 |
| 20260509230713 | 11 | 48 | 1.6 | 1.6 | 0.00 | 1.75 | 1.75 | 84 | 1010.1 |
| 20260509230209 | 11 | 48 | 6.4 | 6.4 | 0.00 | 1.75 | 1.75 | 84 | 1010.1 |
| 20260509225704 | 11 | 48 | 3.2 | 3.2 | 0.00 | 1.75 | 1.75 | 84 | 1010.1 |
| 20260509225200 | 11 | 48 | 0.0 | 0.0 | 0.00 | 1.75 | 1.75 | 86 | 1010.1 |
| 20260509224656 | 11 | 48 | 3.2 | 3.2 | 0.00 | 1.75 | 1.75 | 86 | 1010.1 |
| 20260509224154 | 11 | 48 | 0.0 | 0.0 | 0.00 | 1.75 | 1.75 | 88 | 1010.4 |
| 20260509223650 | 11 | 48 | 0.0 | 0.0 | 0.00 | 1.75 | 1.75 | 88 | 1010.4 |
| 20260509223147 | 11 | 48 | 6.4 | 6.4 | 0.00 | 1.75 | 1.75 | 87 | 1010.4 |
| 20260509222644 | 11 | 48 | 0.0 | 0.0 | 0.00 | 1.75 | 1.75 | 87 | 1010.1 |
| 20260509222139 | 10 | 42 | 0.0 | 0.0 | 0.00 | 1.75 | 1.75 | 87 | 1010.4 |
| 20260509221636 | 10 | 42 | 0.0 | 0.0 | 0.00 | 1.75 | 1.75 | 89 | 1010.4 |
| 20260509221132 | 10 | 42 | 3.2 | 3.2 | 0.00 | 1.75 | 1.75 | 89 | 1010.4 |
| 20260509220628 | 10 | 42 | 0.0 | 0.0 | 0.00 | 1.75 | 1.75 | 88 | 1010.4 |
| 20260509220124 | 10 | 42 | 0.0 | 0.0 | 0.00 | 1.75 | 1.75 | 88 | 1010.4 |
| 20260509215620 | 10 | 42 | 0.0 | 0.0 | 0.00 | 1.75 | 1.75 | 89 | 1010.4 |
| 20260509215117 | 10 | 42 | 0.0 | 0.0 | 0.00 | 1.75 | 1.75 | 88 | 1010.8 |
| 20260509214614 | 10 | 42 | 3.2 | 3.2 | 0.00 | 1.75 | 1.75 | 89 | 1010.4 |
| 20260509214111 | 10 | 42 | 0.0 | 0.0 | 0.00 | 1.75 | 1.75 | 89 | 1010.8 |
| 20260509213607 | 10 | 42 | 1.6 | 1.6 | 0.00 | 1.75 | 1.75 | 90 | 1010.8 |
| 20260509213104 | 10 | 36 | 0.0 | 0.0 | 0.00 | 1.75 | 1.75 | 90 | 1010.8 |
| 20260509212601 | 10 | 48 | 3.2 | 3.2 | 0.00 | 1.75 | 1.75 | 90 | 1010.8 |
| 20260509212058 | 10 | 48 | 0.0 | 0.0 | 0.00 | 1.75 | 1.75 | 91 | 1010.8 |
| 20260509211554 | 10 | 48 | 0.0 | 0.0 | 0.00 | 1.75 | 1.75 | 91 | 1010.8 |
| 20260509211050 | 10 | 48 | 3.2 | 3.2 | 0.00 | 1.75 | 1.75 | 91 | 1010.8 |
| 20260509210547 | 10 | 48 | 3.2 | 3.2 | 0.00 | 1.75 | 1.75 | 90 | 1010.8 |
| 20260509210044 | 10 | 48 | 3.2 | 3.2 | 0.00 | 1.75 | 1.75 | 91 | 1010.8 |
| 20260509205543 | 10 | 42 | 0.0 | 0.0 | 0.03 | 1.75 | 1.75 | 92 | 1011.1 |
| 20260509205039 | 10 | 42 | 0.0 | 0.0 | 0.03 | 1.75 | 1.75 | 92 | 1010.8 |
| 20260509204536 | 10 | 42 | 0.0 | 0.0 | 0.03 | 1.75 | 1.75 | 92 | 1011.1 |
| 20260509204032 | 9 | 42 | 0.0 | 0.0 | 0.03 | 1.75 | 1.75 | 92 | 1011.1 |
| 20260509203528 | 9 | 42 | 9.7 | 9.7 | 0.03 | 1.75 | 1.75 | 92 | 1011.5 |
| 20260509203027 | 9 | 42 | 0.0 | 0.0 | 0.03 | 1.75 | 1.75 | 92 | 1011.5 |
| 20260509202527 | 9 | 42 | 3.2 | 3.2 | 0.03 | 1.75 | 1.75 | 92 | 1011.5 |
| 20260509202022 | 9 | 42 | 0.0 | 0.0 | 0.03 | 1.75 | 1.75 | 92 | 1011.5 |
| 20260509201518 | 10 | 42 | 0.0 | 0.0 | 0.00 | 1.70 | 1.70 | 92 | 1011.5 |
| 20260509201016 | 9 | 42 | 0.0 | 0.0 | 0.00 | 1.70 | 1.70 | 92 | 1011.8 |
| 20260509200515 | 10 | 42 | 0.0 | 0.0 | 0.00 | 1.70 | 1.70 | 93 | 1011.5 |
| 20260509200013 | 9 | 42 | 0.0 | 0.0 | 0.00 | 1.70 | 1.70 | 93 | 1011.5 |
| 20260509195508 | 9 | 42 | 0.0 | 0.0 | 0.15 | 1.70 | 1.70 | 93 | 1011.8 |
| 20260509195007 | 9 | 42 | 0.0 | 0.0 | 0.15 | 1.70 | 1.70 | 93 | 1011.5 |
| 20260509194503 | 9 | 42 | 0.0 | 0.0 | 0.15 | 1.70 | 1.70 | 93 | 1011.8 |
| 20260509194000 | 9 | 42 | 0.0 | 0.0 | 0.15 | 1.70 | 1.70 | 93 | 1011.8 |
| 20260509193500 | 8 | 42 | 0.0 | 0.0 | 0.15 | 1.70 | 1.70 | 93 | 1011.8 |
| 20260509192957 | 8 | 42 | 0.0 | 0.0 | 0.10 | 1.68 | 1.68 | 93 | 1011.8 |
| 20260509192453 | 8 | 42 | 0.0 | 0.0 | 0.10 | 1.68 | 1.68 | 93 | 1011.8 |
| 20260509191948 | 8 | 42 | 0.0 | 0.0 | 0.08 | 1.63 | 1.63 | 93 | 1011.8 |
| 20260509191444 | 8 | 42 | 0.0 | 0.0 | 0.08 | 1.63 | 1.63 | 93 | 1011.8 |
| 20260509190940 | 8 | 42 | 0.0 | 0.0 | 0.03 | 1.57 | 1.57 | 93 | 1011.8 |
| 20260509190437 | 8 | 42 | 0.0 | 0.0 | 0.03 | 1.57 | 1.57 | 93 | 1011.8 |
| 20260509185935 | 8 | 42 | 0.0 | 0.0 | 0.28 | 1.55 | 1.55 | 93 | 1011.8 |
| 20260509185432 | 8 | 42 | 0.0 | 0.0 | 0.28 | 1.55 | 1.55 | 92 | 1011.8 |
| 20260509184928 | 8 | 42 | 0.0 | 0.0 | 0.23 | 1.50 | 1.50 | 92 | 1011.8 |
| 20260509184426 | 8 | 42 | 0.0 | 0.0 | 0.23 | 1.50 | 1.50 | 92 | 1012.1 |
| 20260509183922 | 8 | 42 | 0.0 | 0.0 | 0.18 | 1.47 | 1.47 | 92 | 1011.8 |
| 20260509183417 | 8 | 42 | 0.0 | 0.0 | 0.15 | 1.42 | 1.42 | 92 | 1012.1 |
| 20260509182914 | 8 | 42 | 3.2 | 3.2 | 0.15 | 1.42 | 1.42 | 92 | 1012.1 |
| 20260509182410 | 8 | 42 | 0.0 | 0.0 | 0.10 | 1.40 | 1.40 | 92 | 1012.1 |
| 20260509181908 | 8 | 42 | 0.0 | 0.0 | 0.08 | 1.35 | 1.35 | 92 | 1012.1 |
| 20260509181405 | 8 | 42 | 0.0 | 0.0 | 0.08 | 1.35 | 1.35 | 92 | 1012.1 |
| 20260509180902 | 8 | 42 | 0.0 | 0.0 | 0.03 | 1.30 | 1.30 | 92 | 1012.1 |
| 20260509180358 | 8 | 42 | 0.0 | 0.0 | 0.00 | 1.27 | 1.27 | 92 | 1012.1 |
| 20260509175855 | 8 | 42 | 3.2 | 3.2 | 0.23 | 1.27 | 1.27 | 92 | 1012.1 |
| 20260509175351 | 8 | 42 | 4.8 | 4.8 | 0.18 | 1.22 | 1.22 | 92 | 1012.1 |
| 20260509174847 | 7 | 42 | 3.2 | 3.2 | 0.15 | 1.19 | 1.19 | 92 | 1012.5 |
| 20260509174344 | 7 | 42 | 3.2 | 3.2 | 0.15 | 1.19 | 1.19 | 93 | 1012.1 |
| 20260509173839 | 7 | 42 | 4.8 | 4.8 | 0.10 | 1.14 | 1.14 | 93 | 1012.1 |
| 20260509173335 | 7 | 42 | 0.0 | 0.0 | 0.10 | 1.14 | 1.14 | 93 | 1012.5 |
| 20260509172831 | 7 | 42 | 0.0 | 0.0 | 0.08 | 1.12 | 1.12 | 93 | 1012.1 |
| 20260509172328 | 7 | 42 | 0.0 | 0.0 | 0.08 | 1.12 | 1.12 | 93 | 1012.5 |
| 20260509171824 | 7 | 42 | 0.0 | 0.0 | 0.03 | 1.07 | 1.07 | 93 | 1012.5 |
| 20260509171320 | 7 | 42 | 0.0 | 0.0 | 0.03 | 1.07 | 1.07 | 93 | 1012.5 |
| 20260509170816 | 7 | 42 | 0.0 | 0.0 | 0.03 | 1.07 | 1.07 | 93 | 1012.5 |
| 20260509170312 | 7 | 42 | 3.2 | 3.2 | 0.00 | 1.02 | 1.02 | 93 | 1012.5 |
| 20260509165812 | 7 | 42 | 0.0 | 0.0 | 0.23 | 1.02 | 1.02 | 93 | 1012.5 |
| 20260509165307 | 7 | 42 | 0.0 | 0.0 | 0.18 | 0.99 | 0.99 | 93 | 1012.5 |
| 20260509164803 | 7 | 42 | 0.0 | 0.0 | 0.18 | 0.99 | 0.99 | 93 | 1012.5 |
| 20260509164300 | 7 | 42 | 0.0 | 0.0 | 0.15 | 0.94 | 0.94 | 92 | 1012.5 |
| 20260509163756 | 7 | 42 | 0.0 | 0.0 | 0.15 | 0.94 | 0.94 | 92 | 1012.5 |
| 20260509163253 | 7 | 42 | 0.0 | 0.0 | 0.15 | 0.94 | 0.94 | 92 | 1012.9 |
| 20260509162752 | 7 | 42 | 3.2 | 3.2 | 0.10 | 0.91 | 0.91 | 91 | 1012.9 |
| 20260509162251 | 7 | 42 | 0.0 | 0.0 | 0.08 | 0.86 | 0.86 | 91 | 1012.9 |
| 20260509161747 | 7 | 48 | 4.8 | 4.8 | 0.08 | 0.86 | 0.86 | 91 | 1012.9 |
| 20260509161243 | 7 | 48 | 6.4 | 6.4 | 0.03 | 0.84 | 0.84 | 90 | 1012.9 |
| 20260509160738 | 7 | 48 | 0.0 | 0.0 | 0.00 | 0.79 | 0.79 | 90 | 1013.3 |
| 20260509160235 | 7 | 48 | 4.8 | 6.4 | 0.00 | 0.79 | 0.79 | 89 | 1013.3 |
| 20260509155730 | 6 | 48 | 0.0 | 0.0 | 0.30 | 0.79 | 0.79 | 89 | 1013.3 |
| 20260509155227 | 6 | 48 | 3.2 | 3.2 | 0.28 | 0.74 | 0.74 | 89 | 1013.3 |
| 20260509154723 | 6 | 48 | 3.2 | 3.2 | 0.23 | 0.71 | 0.71 | 90 | 1013.6 |
| 20260509154220 | 6 | 48 | 3.2 | 3.2 | 0.23 | 0.71 | 0.71 | 89 | 1013.6 |
| 20260509153718 | 6 | 48 | 1.6 | 1.6 | 0.18 | 0.66 | 0.66 | 89 | 1013.6 |
| 20260509153214 | 6 | 42 | 0.0 | 0.0 | 0.15 | 0.64 | 0.64 | 89 | 1013.6 |
| 20260509152710 | 6 | 48 | 8.0 | 9.7 | 0.15 | 0.64 | 0.64 | 90 | 1013.6 |
| 20260509152207 | 6 | 54 | 3.2 | 3.2 | 0.10 | 0.58 | 0.58 | 90 | 1013.6 |
| 20260509151704 | 6 | 54 | 0.0 | 0.0 | 0.08 | 0.56 | 0.56 | 90 | 1013.6 |
| 20260509151201 | 6 | 54 | 0.0 | 0.0 | 0.08 | 0.56 | 0.56 | 90 | 1013.6 |
| 20260509150658 | 6 | 54 | 0.0 | 0.0 | 0.03 | 0.51 | 0.51 | 90 | 1013.9 |